This demonstration page uses our WeatherBlox Daily Observations layout. Learn more.

Left ArrowRight Arrow

34.16533, -84.80231

Hourly Observations for June 11, 2019

Temp ( °F °C ) Dew Point ( °F °C ) Humidity (%) Winds ( mph kmh ) Pressure ( in mb ) Visibility ( mi km ) Precip ( " mm )
12:53 am 00:53 Mostly Cloudy 72 22.2 63 17.2 73 73 VRB 5 7 30.01 1016 10 16 0.00 0.00
1:53 am 01:53 Clear 70 21.1 62 16.7 76 76 VRB 5 7 30.01 1016 10 16 0.00 0.00
2:53 am 02:53 Clear 69 20.6 61 16.1 76 76 VRB 6 9 30.01 1016 10 16 0.00 0.00
3:53 am 03:53 Clear 68 20 56 13.3 65 65 NNW 5 7 30.01 1016 10 16 0.00 0.00
4:53 am 04:53 Clear 66 18.9 56 13.3 70 70 NNW 8 13 30.01 1016 10 16 0.00 0.00
5:53 am 05:53 Clear 65 18.3 55 12.8 70 70 Calm 30.02 1017 10 16 0.00 0.00
6:53 am 06:53 Sunny 64 17.8 54 12.2 70 70 NNW 3 6 30.04 1017 10 16 0.00 0.00
7:53 am 07:53 Sunny 65 18.3 54 12.2 68 68 N 6 9 30.05 1018 10 16 0.00 0.00
8:53 am 08:53 Sunny 67 19.4 55 12.8 66 66 VRB 7 11 30.07 1018 10 16 0.00 0.00
9:53 am 09:53 Mostly Sunny 70 21.1 56 13.3 61 61 N 8 13 30.07 1018 10 16 0.00 0.00
10:53 am 10:53 Mostly Sunny 72 22.2 57 13.9 59 59 VRB 6 9 30.06 1018 10 16 0.00 0.00
11:53 am 11:53 Mostly Cloudy 72 22.2 58 14.4 61 61 NNW 6 9 30.06 1018 10 16 0.00 0.00
12:53 pm 12:53 Mostly Sunny 77 25 61 16.1 58 58 N 9 15 30.04 1017 10 16 0.00 0.00
1:53 pm 13:53 Mostly Sunny 79 26.1 62 16.7 56 56 NNE 9 15 30.01 1016 10 16 0.00 0.00
2:53 pm 14:53 Cloudy 81 27.2 63 17.2 54 54 undefined N/A 30.00 1016 10 16 0.00 0.00
3:53 pm 15:53 Sunny 83 28.3 64 17.8 53 53 VRB 5 7 29.98 1015 10 16 0.00 0.00
4:53 pm 16:53 Sunny 82 27.8 63 17.2 53 53 VRB 6 9 29.96 1014 10 16 0.00 0.00
5:53 pm 17:53 Sunny 80 26.7 62 16.7 54 54 N 6 9 29.96 1014 10 16 0.00 0.00
6:53 pm 18:53 Sunny 78 25.6 62 16.7 58 58 Calm 29.95 1014 10 16 0.00 0.00
7:53 pm 19:53 Sunny 76 24.4 59 15 56 56 N 9 15 29.96 1015 10 16 0.00 0.00
8:53 pm 20:53 Partly Cloudy 73 22.8 57 13.9 57 57 Calm 29.98 1015 10 16 0.00 0.00
9:53 pm 21:53 Partly Cloudy 71 21.7 57 13.9 61 61 Calm 29.98 1015 10 16 0.00 0.00
10:53 pm 22:53 Mostly Cloudy 71 21.7 57 13.9 61 61 NNE 3 6 29.98 1015 10 16 0.00 0.00
11:53 pm 23:53 Cloudy 69 20.6 61 16.1 76 76 Calm 29.99 1016 10 16 0.00 0.00

Powered by AerisWeather